Change the Weather History Date:

Saturday, October 2, 2010

  Actual Average Record
Temperature  
Mean Temperature 62 °F 51 °F  
Max Temperature 82 °F 65 °F 85 °F (1992)
Min Temperature 42 °F 37 °F 19 °F (1950)
Degree Days  
Heating Degree Days 3 14  
Month to date heating degree days 6 27  
Since 1 July heating degree days 344 333  
Cooling Degree Days 0 0  
Month to date cooling degree days 0 0  
Year to date cooling degree days 232 406  
Growing Degree Days 14 (Base 50)    
Moisture  
Dew Point 43 °F    
Average Humidity 53    
Maximum Humidity 83    
Minimum Humidity 22    
Precipitation  
Precipitation 0.00 in 0.03 in 1.04 in (1908)
Month to date precipitation 0.00 0.06  
Year to date precipitation 10.42 9.71  
Snow  
Snow 0.00 in 0.00 in 3.70 in (1916)
Month to date snowfall 0.0 0.1  
Since 1 July snowfall 0.0 1.7  
Since 1 September snowfall 0.0 1.4  
Snow Depth 0.00 in    
Sea Level Pressure  
Sea Level Pressure 30.11 in    
Wind  
Wind Speed 2 mph (NW)    
Max Wind Speed 9 mph    
Max Gust Speed 10 mph    
Visibility 10 miles    
Events      
T = Trace of Precipitation, MM = Missing Value Source: NWS Daily Summary

Daily Weather History Graph

Daily Weather History Graph

Search for Another Location

Airport or City:

Trip Planner

Search our weather history database for the weather conditions in past years. The results will help you decide how hot, cold, wet, or windy it might be!

Date:

Astronomy

Oct. 02, 2010 Rise Set
Actual Time 7:27 AM MDT 7:05 PM MDT
Civil Twilight 6:57 AM MDT 7:35 PM MDT
Nautical Twilight 6:22 AM MDT 8:10 PM MDT
Astronomical Twilight 5:47 AM MDT 8:46 PM MDT
Moon 12:54 AM MDT (10/2) 4:15 PM MDT (10/2)
Length of Visible Light 12h 37m
Length of Day
11h 37m
Waning Crescent, 33% of the Moon is Illuminated
Oct 2
Waning Crescent
Oct 7
New
Oct 14
First Quarter
Oct 22
Full
Oct 30
Last Quarter

Hourly Weather History & Observations

Time (MDT) Temp. Dew Point Humidity Pressure Visibility Wind Dir Wind Speed Gust Speed Precip Events Conditions
12:53 AM 53.1 °F 43.0 °F 69% 30.19 in 10.0 mi SW 4.6 mph - N/A   Clear
1:53 AM 50.0 °F 43.0 °F 77% 30.18 in 10.0 mi Calm Calm - N/A   Clear
2:53 AM 48.0 °F 42.1 °F 80% 30.18 in 10.0 mi Calm Calm - N/A   Clear
3:53 AM 48.9 °F 42.1 °F 77% 30.17 in 10.0 mi Calm Calm - N/A   Clear
4:53 AM 48.9 °F 42.1 °F 77% 30.17 in 10.0 mi Calm Calm - N/A   Clear
5:53 AM 48.0 °F 41.0 °F 77% 30.17 in 10.0 mi Calm Calm - N/A   Clear
6:53 AM 46.0 °F 41.0 °F 83% 30.19 in 10.0 mi Calm Calm - N/A   Clear
7:53 AM 45.0 °F 39.9 °F 82% 30.21 in 10.0 mi Calm Calm - N/A   Clear
8:53 AM 48.9 °F 42.1 °F 77% 30.20 in 10.0 mi Calm Calm - N/A   Clear
9:53 AM 53.1 °F 43.0 °F 69% 30.20 in 10.0 mi Calm Calm - N/A   Clear
10:53 AM 57.0 °F 44.1 °F 62% 30.19 in 10.0 mi Calm Calm - N/A   Clear
11:53 AM 61.0 °F 44.1 °F 54% 30.17 in 10.0 mi Calm Calm - N/A   Clear
12:53 PM 66.0 °F 44.1 °F 45% 30.13 in 10.0 mi Calm Calm - N/A   Clear
1:53 PM 73.0 °F 45.0 °F 37% 30.08 in 10.0 mi ENE 5.8 mph - N/A   Clear
2:53 PM 75.9 °F 45.0 °F 33% 30.04 in 10.0 mi NNE 3.5 mph - N/A   Clear
3:53 PM 80.1 °F 45.0 °F 29% 30.01 in 10.0 mi Variable 3.5 mph - N/A   Clear
4:53 PM 82.0 °F 39.9 °F 22% 29.99 in 10.0 mi ENE 3.5 mph - N/A   Clear
5:53 PM 79.0 °F 42.1 °F 27% 29.99 in 10.0 mi ENE 4.6 mph - N/A   Clear
6:53 PM 69.1 °F 45.0 °F 42% 30.01 in 10.0 mi West 5.8 mph - N/A   Clear
7:53 PM 68.0 °F 44.1 °F 42% 30.01 in 10.0 mi WSW 8.1 mph - N/A   Clear
8:53 PM 62.1 °F 41.0 °F 46% 30.02 in 10.0 mi WNW 3.5 mph - N/A   Clear
9:53 PM 60.1 °F 42.1 °F 51% 30.02 in 10.0 mi SW 4.6 mph - N/A   Clear
10:53 PM 57.0 °F 41.0 °F 55% 30.03 in 10.0 mi Calm Calm - N/A   Clear
11:53 PM 55.9 °F 41.0 °F 57% 30.02 in 10.0 mi Calm Calm - N/A   Clear